Overview Statistics Trail Chart Weather Telemetry Raw packets
 

This is the latest recevied weather packets stored in our database for station/object OM5ZU-10. If no packets are shown the sender has not sent any weather packets the latest 10 day(s).

<< 7 8 9 10 11 12 13 >>
Time Temp. Humidity Pressure Rain* Wind** Luminosity Snow
1788386846 16.67° C 68% 1018.7 hPa - - - -
1788385946 16.67° C 69% 1018.7 hPa - - - -
1788385046 16.67° C 68% 1018.9 hPa - - - -
1788384146 16.67° C 71% 1018.8 hPa - - - -
1788383246 16.11° C 69% 1018.8 hPa - - - -
1788382346 16.11° C 69% 1018.7 hPa - - - -
1788381445 16.67° C 70% 1018.5 hPa - - - -
1788380545 16.67° C 69% 1018.4 hPa - - - -
1788379645 17.22° C 67% 1018.5 hPa - - - -
1788378745 16.67° C 69% 1018.5 hPa - - - -
1788377845 17.22° C 69% 1018.5 hPa - - - -
1788376944 17.78° C 67% 1018.3 hPa - - - -
1788376044 17.78° C 64% 1018.3 hPa - - - -
1788375144 18.89° C 64% 1018.3 hPa - - - -
1788374244 19.44° C 61% 1018.3 hPa - - - -
1788373344 20° C 63% 1018.1 hPa - - - -
1788372444 20.56° C 60% 1018.1 hPa - - - -
1788371543 21.11° C 57% 1017.9 hPa - - - -
1788370643 21.67° C 58% 1017.8 hPa - - - -
1788369743 22.22° C 54% 1017.7 hPa - - - -
1788368843 22.78° C 51% 1017.8 hPa - - - -
1788367943 23.33° C 50% 1017.7 hPa - - - -
1788367043 23.89° C 46% 1017.8 hPa - - - -
1788366142 25.56° C 42% 1017.9 hPa - - - -
1788365242 25.56° C 43% 1018 hPa - - - -

* Rain since midnight (hover to see other rain measurements)
** Current wind speed in m/s (hover to see current wind gust speed)